{"data":{"norad_id":67045,"epoch":"2026-09-19T14:40:44.037984Z","epoch_age_seconds":158041,"freshness":"FRESH","line1":"1 67045U 25294R   26262.61162081  .00009203  00000+0  34350-3 0  9998","line2":"2 67045  43.0025  23.1987 0001056 260.4782  99.5950 15.27584749 44455","mean_motion":15.27584749,"eccentricity":0.0001056,"inclination_deg":43.0025,"raan_deg":23.1987,"arg_perigee_deg":260.4782,"mean_anomaly_deg":99.595,"bstar":0.0003435,"rev_number":4445,"period_min":94.266455654435,"perigee_km":482.31033611196,"apogee_km":483.75941561214,"semimajor_km":6861.171875862,"source":"CELESTRAK","updated_at":"2026-09-21T09:00:36.094187Z"}}